Location: Newark
(34.9500°N, 139.9667°E)
Time: 09:57:39
(UTC+00:00)

Transit 4A - Pass Details

Date: 13 December 2019
Orbit: 871 x 973 km, 66.8° (Epoch: 18 January)

Event Time Altitude Azimuth Distance (km) Brightness Sun altitude
Rises 08:26:49 0° 258° (WSW) 3,602 13.0 -11.6°
Reaches altitude 10° 08:30:42 10° 281° (W) 2,639 11.2 -12.3°
Maximum altitude 08:33:56 15° 313° (NW) 2,307 10.3 -13.0°
Drops below altitude 10° 08:37:09 10° 346° (NNW) 2,605 10.2 -13.6°
Sets 08:40:59 0° 10° (N) 3,528 10.6 -14.3°
